GAOFEN-9 01

Last updated on Wed Jun 24 2026 00:02:52 GMT+0000 (Coordinated Universal Time)

1 40894U 15047A 26173.86565378 .00000710 00000+0 93236-4 0 9993 2 40894 97.6278 209.3025 0028708 119.9767 240.4302 14.82892597581039
UTC large
Height (km)
Speed (km/s)
/
Latitude / Longitude
Inclination (degrees)
Orbital Period (minutes)
Azimuth
Elevation
Range (km)
Doppler Factor

Next 0 passes for location: London (51.5072 / 0.1276)

No passes found over London.
GAOFEN-9 01